Location: *
(46.3500°N, 10.9000°E)
Time: 17:39:14
(UTC+00:00)

SPOT 1/Viking Rocket - Pass Details

Date: 09 April 2020
Orbit: 776 x 795 km, 98.5° (Epoch: 25 May)

Event Time Altitude Azimuth Distance (km) Brightness Sun altitude
Exits shadow 19:50:06 32° 100° (E) 1,346 4.3 -18.7°
Maximum altitude 19:51:31 38° 67° (ENE) 1,206 4.2 -18.9°
Drops below altitude 10° 19:56:19 10° 1° (N) 2,376 6.5 -19.6°
Sets 19:58:47 0° 353° (N) 3,310 7.4 -19.9°
